Вернуться в каталог

PHOBOS

АктивенНаукаSSO
NORAD 68467·PAYLOAD·🇳🇴 Norway

Запущен Mar 30, 2026 с Vandenberg Space Force Base

Loading…

Ближайшие Пролёты (ближайшие 24 часа)

TLE

СвежийSource: Space-Track

Эпоха: Sep 14, 2026, 03:17 UTC

1 68467U 26067BD  26257.13724008  .00015642  00000-0  69503-3 0  9993
2 68467  97.4495 214.3180 0008143 115.0563 245.1520 15.21585585 25457

Отслеживайте PHOBOS в реальном времени с AllMySat

Download on the App Store